Location: Lancaster
(34.6980°N, 118.1360°W)
Time: 09:16:24
(UTC-08:00)

Vanguard 1 Rocket - All Passes

Search period start: 19 January 2018 00:00
Search period end: 29 January 2018 00:00
Orbit: 656 x 4222 km, 34.3° (Epoch: 18 January)

Date Brightness Start Highest point End Pass type
(mag) Time Alt. Az. Time Alt. Az. Time Alt. Az.
19 Jan - 04:15:46 10° SSW 04:30:14 29° SSE 04:39:06 10° E visible
19 Jan - 06:44:35 10° WSW 06:57:53 59° SSE 07:04:45 10° E daylight
19 Jan - 09:15:21 10° W 09:23:47 87° S 09:28:46 10° E daylight
19 Jan - 11:43:33 10° W 11:48:34 48° SSW 11:52:49 10° SE daylight
20 Jan - 03:04:03 10° S 03:17:16 21° SSE 03:26:29 10° ESE visible
20 Jan - 05:30:26 10° SW 05:45:59 47° SSE 05:54:11 10° E visible
20 Jan - 08:01:35 10° WSW 08:12:39 81° S 08:18:31 10° E daylight
20 Jan - 10:31:28 10° W 10:38:01 73° SSW 10:42:30 10° ESE daylight
20 Jan - 12:59:04 10° WSW 13:02:15 19° SSW 13:05:28 10° SSE daylight
21 Jan - 01:55:25 10° SSE 02:03:47 13° SE 02:10:47 10° ESE visible
21 Jan - 04:16:41 10° SSW 04:33:31 37° SSE 04:43:10 10° E visible
21 Jan - 06:47:09 10° WSW 07:01:11 70° SSE 07:08:14 10° E daylight
21 Jan - 09:18:31 10° W 09:27:10 87° S 09:32:13 10° E daylight
21 Jan - 11:47:00 10° W 11:51:49 36° SSW 11:55:51 10° SE daylight
22 Jan - 03:03:53 10° SSW 03:20:31 28° SSE 03:31:14 10° E visible
22 Jan - 05:32:28 10° SW 05:49:14 58° SSE 05:57:46 10° E visible
22 Jan - 08:04:38 10° W 08:16:01 86° S 08:21:59 10° E daylight
22 Jan - 10:34:43 10° W 10:41:21 61° SSW 10:45:50 10° ESE daylight
22 Jan - 13:03:47 10° SW 13:05:23 12° SW 13:06:59 10° SSW daylight
23 Jan - 01:52:53 10° S 02:07:03 20° SE 02:17:37 10° ESE visible
23 Jan - 04:18:03 10° SW 04:36:44 46° SSE 04:46:55 10° E visible
23 Jan - 06:49:54 10° WSW 07:04:28 78° SSE 07:11:42 10° E daylight
23 Jan - 09:21:42 10° W 09:30:33 82° S 09:35:40 10° ESE daylight
23 Jan - 11:50:35 10° W 11:54:58 25° SSW 11:58:40 10° SSE daylight
24 Jan - 00:46:46 10° SSE 00:53:13 12° SE 00:59:02 10° ESE visible
24 Jan - 03:04:27 10° SSW 03:23:40 36° SSE 03:35:24 10° E visible
24 Jan - 05:34:46 10° WSW 05:52:28 67° SSE 06:01:15 10° E visible
24 Jan - 08:07:42 10° W 08:19:23 88° S 08:25:26 10° E daylight
24 Jan - 10:37:59 10° W 10:44:35 48° SSW 10:49:03 10° SE daylight
25 Jan - 01:52:15 10° SSW 02:10:09 27° SE 02:22:42 10° E visible
25 Jan - 04:19:47 10° SW 04:39:53 56° SSE 04:50:30 10° E visible
25 Jan - 06:52:46 10° WSW 07:07:46 85° S 07:15:09 10° E daylight
25 Jan - 09:24:51 10° W 09:33:53 73° SSW 09:39:04 10° ESE daylight
25 Jan - 11:54:28 10° W 11:58:01 18° SW 12:01:04 10° S daylight
26 Jan - 00:42:34 10° S 00:56:20 18° SE 01:07:36 10° ESE visible
26 Jan - 03:05:32 10° SW 03:26:44 45° SSE 03:39:13 10° E visible
26 Jan - 05:37:16 10° WSW 05:55:39 76° SSE 06:04:41 10° E visible
26 Jan - 08:10:47 10° W 08:22:44 86° S 08:28:53 10° E daylight
26 Jan - 10:41:20 10° W 10:47:44 37° SSW 10:52:06 10° SE daylight
27 Jan - 01:52:32 10° SSW 02:13:06 34° SE 02:27:01 10° E visible
27 Jan - 04:21:49 10° SW 04:42:59 65° SSE 04:53:59 10° E visible
27 Jan - 06:55:43 10° W 07:11:04 88° S 07:18:35 10° E daylight
27 Jan - 09:28:00 10° W 09:37:09 62° SSW 09:42:23 10° ESE daylight
27 Jan - 11:59:15 10° WSW 12:00:56 11° SW 12:02:30 10° SSW daylight
28 Jan - 00:41:23 10° S 00:59:14 24° SE 01:13:13 10° E visible
28 Jan - 03:07:02 10° SW 03:29:44 54° SSE 03:42:48 10° E visible
28 Jan - 05:39:57 10° WSW 05:58:52 82° S 06:08:07 10° E visible
28 Jan - 08:13:51 10° W 08:26:03 81° SSW 08:32:19 10° ESE daylight
28 Jan - 10:44:48 10° W 10:50:44 27° SW 10:54:55 10° SSE daylight
